Weather History for KORD - March, 2008

Change the Weather History Date:

Thursday, March 6, 2008

  Actual Average Record
Temperature  
Mean Temperature 27 °F 34 °F  
Max Temperature 32 °F 43 °F 70 °F (2000)
Min Temperature 21 °F 26 °F 2 °F (1960)
Degree Days  
Heating Degree Days 38 31  
Month to date heating degree days 196 190  
Since 1 July heating degree days 4887 4924  
Cooling Degree Days 0 0  
Month to date cooling degree days 0 0  
Year to date cooling degree days 0 0  
Moisture  
Dew Point 17 °F    
Average Humidity 68    
Maximum Humidity 92    
Minimum Humidity 43    
Precipitation  
Precipitation T in 0.08 in 0.92 in (1894)
Month to date precipitation 0.68 0.47  
Year to date precipitation 6.14 3.99  
Snow  
Snow T in 0.20 in 4.00 in (1943)
Month to date snowfall T 1.4  
Since 1 July snowfall 52.4 31.2  
Snow Depth -    
Sea Level Pressure  
Sea Level Pressure 30.15 in    
Wind  
Wind Speed 9 mph (WNW)    
Max Wind Speed 18 mph    
Max Gust Speed 23 mph    
Visibility 8 miles    
Events Snow    
T = Trace of Precipitation, MM = Missing Value Source: NWS Daily Summary

Daily Weather History Graph

Daily Weather History Graph

Search for Another Location

Airport or City:

Trip Planner

Search our weather history database for the weather conditions in past years. The results will help you decide how hot, cold, wet, or windy it might be!

Date:

Astronomy

Mar. 06, 2008 Rise Set
Actual Time 6:17 AM CST 5:48 PM CST
Civil Twilight 5:50 AM CST 6:16 PM CST
Nautical Twilight 5:17 AM CST 6:48 PM CST
Astronomical Twilight 4:45 AM CST 7:21 PM CST
Moon 5:44 AM CST (3/6) 4:54 PM CST (3/6)
Length of Visible Light 12h 26m
Length of Day
11h 30m
Waning Crescent, 1% of the Moon is Illuminated
Mar 6
Waning Crescent
Mar 7
New
Mar 14
First Quarter
Mar 21
Full
Mar 29
Last Quarter

Hourly Weather History & Observations

Time (CST) Temp. Windchill Dew Point Humidity Pressure Visibility Wind Dir Wind Speed Gust Speed Precip Events Conditions
12:21 AM 32.0 °F 25.6 °F 28.4 °F 87% 29.98 in 3.0 mi West 6.9 mph - 0.00 in Snow Light Snow
12:51 AM 30.9 °F 22.8 °F 28.0 °F 89% 30.00 in 5.0 mi WNW 9.2 mph - 0.00 in Snow Light Snow
1:51 AM 30.9 °F 22.2 °F 26.1 °F 82% 30.01 in 5.0 mi WNW 10.4 mph - 0.00 in Snow Light Snow
2:51 AM 30.0 °F 23.2 °F 24.1 °F 79% 30.02 in 6.0 mi WNW 6.9 mph - 0.00 in   Haze
3:17 AM 30.2 °F 23.4 °F 24.8 °F 80% 30.00 in 6.0 mi WNW 6.9 mph - N/A   Haze
3:46 AM 28.4 °F 17.5 °F 21.2 °F 74% 30.01 in 7.0 mi WNW 13.8 mph - N/A   Mostly Cloudy
3:51 AM 28.0 °F 18.1 °F 21.9 °F 78% 30.04 in 6.0 mi WNW 11.5 mph - N/A   Haze
4:51 AM 25.0 °F 12.6 °F 19.9 °F 81% 30.06 in 5.0 mi WNW 15.0 mph 23.0 mph N/A   Haze
5:51 AM 24.1 °F 13.1 °F 19.0 °F 81% 30.09 in 6.0 mi WNW 11.5 mph - N/A   Haze
6:51 AM 24.1 °F 13.1 °F 19.0 °F 81% 30.11 in 4.0 mi NW 11.5 mph - N/A   Haze
7:51 AM 21.9 °F 9.2 °F 17.1 °F 82% 30.15 in 5.0 mi WNW 13.8 mph 19.6 mph N/A   Haze
8:51 AM 21.9 °F 12.5 °F 16.0 °F 78% 30.18 in 8.0 mi West 8.1 mph - 0.00 in   Overcast
9:30 AM 21.2 °F 10.1 °F 15.8 °F 80% 30.16 in 10.0 mi West 10.4 mph - N/A   Mostly Cloudy
9:51 AM 24.1 °F 12.5 °F 15.1 °F 69% 30.19 in 10.0 mi WNW 12.7 mph - N/A   Scattered Clouds
10:51 AM 26.1 °F 15.6 °F 16.0 °F 66% 30.20 in 10.0 mi West 11.5 mph - N/A   Scattered Clouds
11:51 AM 28.9 °F 21.1 °F 16.0 °F 58% 30.18 in 10.0 mi West 8.1 mph - N/A   Scattered Clouds
12:51 PM 30.0 °F 21.7 °F 15.1 °F 54% 30.18 in 10.0 mi West 9.2 mph - N/A   Partly Cloudy
1:51 PM 30.9 °F 23.5 °F 12.9 °F 47% 30.19 in 10.0 mi West 8.1 mph - N/A   Partly Cloudy
2:51 PM 32.0 °F 23.6 °F 14.0 °F 48% 30.19 in 10.0 mi WNW 10.4 mph - N/A   Scattered Clouds
3:51 PM 30.9 °F 24.3 °F 10.9 °F 43% 30.19 in 10.0 mi WSW 6.9 mph - N/A   Mostly Cloudy
4:51 PM 30.0 °F 24.1 °F 12.0 °F 47% 30.19 in 10.0 mi West 5.8 mph - N/A   Mostly Cloudy
5:51 PM 28.9 °F 20.4 °F 12.9 °F 51% 30.22 in 10.0 mi West 9.2 mph - N/A   Mostly Cloudy
6:51 PM 27.0 °F 18.0 °F 12.9 °F 56% 30.23 in 10.0 mi NW 9.2 mph - N/A   Mostly Cloudy
7:51 PM 26.1 °F 16.8 °F 12.9 °F 58% 30.25 in 10.0 mi WNW 9.2 mph - N/A   Mostly Cloudy
8:51 PM 25.0 °F 19.3 °F 12.9 °F 60% 30.26 in 10.0 mi WNW 4.6 mph - N/A   Mostly Cloudy
9:51 PM 25.0 °F 16.3 °F 12.9 °F 60% 30.27 in 10.0 mi NW 8.1 mph - N/A   Mostly Cloudy
10:51 PM 24.1 °F 17.0 °F 14.0 °F 65% 30.30 in 10.0 mi NW 5.8 mph - N/A   Mostly Cloudy
11:51 PM 23.0 °F 14.7 °F 12.9 °F 65% 30.30 in 10.0 mi NNW 6.9 mph - N/A   Mostly Cloudy